Location: *
(51.4660°N, 0.3360°W)
Time: 08:17:32
(UTC+00:00)

FREGAT/IRIS - Pass Details

Date: 19 September 2019
Orbit: 347 x 350 km, 97.0° (Epoch: 21 October)

Event Time Altitude Azimuth Distance (km) Brightness Sun altitude
Exits shadow 19:12:09 - 167° (SSE) 1,958 5.9 -10.8°
Reaches altitude 10° 19:13:35 10° 168° (SSE) 1,324 5.0 -11.0°
Maximum altitude 19:16:24 85° 253° (WSW) 363 2.4 -11.4°
Drops below altitude 10° 19:19:16 10° 346° (NNW) 1,341 5.7 -11.8°
Sets 19:21:12 0° 347° (NNW) 2,192 6.8 -12.1°
